Flag for France Weather past 2 weeks in Gustavia, Saint Barthélemy, France

Now
79 °F

Passing clouds.


Feels Like: 81 °F
Forecast: N/A
Wind: 15 mph from East

Location: Juliana Airport - Saint Maarten

Current Time: Mar 6, 2015 at 6:39:56 PM

Latest Report: Mar 6, 2015 at 6:00 PM


Visibility: N/A

Pressure: 30.07 "Hg

Humidity: 65%

Dew point: 66 °F

Location of GustaviaLocation

Historic Weather in Gustavia — Graph

°F

Gustavia temperature yesterday

Maximum temperature yesterday: 82 °F (at 1:00 PM)
Minimum temperature yesterday: 77 °F (at 12:00 AM)
Average temperature yesterday: 79 °F

Past Weeks' High & Low Weather Summary

 TemperatureHumidityPressure
High84 °F (Feb 20, 1:00 PM)83% (Feb 22, 6:00 AM)30.15 "Hg (Feb 22, 6:00 AM)
Low75 °F (Feb 22, 6:00 AM)55% (Feb 24, 3:00 PM)29.95 "Hg (Feb 20, 3:00 AM)
Average79 °F68%30.06 "Hg
* Reported Feb 19 5:00 PM — Mar 6 5:00 PM, Gustavia, Weather by CustomWeather, © 2015

Note: Actual official high and low records may vary slightly from our data, if they occured in-between our weather recording intervals... More about our weather records

Advertising

Gustavia weather history for previous 24 hours

 ConditionsComfort  
Time TempWeatherWind HumidityBarometerVisibility
5:00 PM
Fri, Mar 6
79 °FPassing clouds.18 mph65%30.07 "HgN/A
4:00 PM81 °FScattered clouds.18 mph62%30.07 "HgN/A
3:00 PM82 °FPassing clouds.16 mph58%30.07 "HgN/A
2:00 PM82 °FPassing clouds.16 mph58%30.07 "HgN/A
1:00 PM82 °FScattered clouds.15 mph58%30.09 "HgN/A
12:00 PM81 °FPartly sunny.15 mph66%30.12 "HgN/A
11:00 AM82 °FPassing clouds.16 mph58%30.15 "HgN/A
10:00 AM81 °FPassing clouds.16 mph62%30.15 "HgN/A
9:00 AM81 °FScattered clouds.17 mph58%30.15 "HgN/A
8:00 AM75 °FBroken clouds.17 mph74%30.12 "HgN/A
7:00 AM77 °FScattered clouds.13 mph65%30.09 "HgN/A
6:00 AM77 °FPassing clouds.15 mph65%30.09 "HgN/A
5:00 AM77 °FPassing clouds.16 mph69%30.07 "HgN/A
4:00 AM77 °FPassing clouds.16 mph69%30.04 "HgN/A
3:00 AM77 °FPassing clouds.14 mph74%30.07 "HgN/A
2:00 AM77 °FPassing clouds.15 mph69%30.07 "HgN/A
1:00 AM77 °FPassing clouds.15 mph74%30.09 "HgN/A
12:00 AM77 °FPassing clouds.13 mph69%30.12 "HgN/A
11:00 PM
Thu, Mar 5
77 °FPassing clouds.15 mph69%30.12 "HgN/A
10:00 PM79 °FPassing clouds.14 mph65%30.12 "HgN/A
9:00 PM79 °FPassing clouds.15 mph65%30.12 "HgN/A
8:00 PM79 °FPassing clouds.14 mph65%30.09 "HgN/A
7:00 PM79 °FPassing clouds.17 mph61%30.07 "HgN/A
6:00 PM79 °FScattered clouds.17 mph65%30.07 "HgN/A
Weather by CustomWeather, © 2015

See weather overviewHow to use our weather pages